2024-172G

Last updated on Fri Oct 04 2024 00:02:04 GMT+0000 (Coordinated Universal Time)

1 61226U 24172G 24277.54787710 .00012840 00000+0 12983-2 0 9993 2 61226 98.0153 4.1960 0056585 9.1880 351.0359 14.89940064 1822
UTC large
Height (km)
Speed (km/s)
/
Latitude / Longitude
Inclination (degrees)
Orbital Period (minutes)
Azimuth
Elevation
Range (km)
Doppler Factor

Next 0 passes for location: London (51.5072 / 0.1276)

Sorry there are no passes over London.